Weather History for Delta, CO

Change the Weather History Date:

Thursday, September 19, 2013

  Actual Average (KMTJ) Record (KMTJ)
Temperature  
Mean Temperature 65 °F 61 °F  
Max Temperature 81 °F 76 °F 91 °F (2010)
Min Temperature 49 °F 46 °F 33 °F (1996)
Degree Days  
Heating Degree Days 0 5  
Month to date heating degree days 47  
Since 1 July heating degree days 52  
Cooling Degree Days 0 1  
Month to date cooling degree days 34  
Year to date cooling degree days 639  
Growing Degree Days 15 (Base 50)    
Moisture  
Dew Point 38 °F    
Average Humidity 50    
Maximum Humidity 92    
Minimum Humidity 11    
Precipitation  
Precipitation 0.00 in 0.05 in 0.67 in (1999)
Month to date precipitation 0.79  
Year to date precipitation 8.12  
Sea Level Pressure  
Sea Level Pressure 30.09 in    
Wind  
Wind Speed 4 mph (NNE)    
Max Wind Speed 14 mph    
Max Gust Speed 20 mph    
Visibility 8 miles    
Events      
T = Trace of Precipitation, MM = Missing Value Source: NWS Daily Summary

Daily Weather History Graph

Daily Weather History Graph

Search for Another Location

Airport:

Trip Planner

Search our weather history database for the weather conditions in past years. The results will help you decide how hot, cold, wet, or windy it might be!

Date:

Astronomy

Sep. 19, 2013 Rise Set
Actual Time 6:57 AM MDT 7:13 PM MDT
Civil Twilight 6:30 AM MDT 7:40 PM MDT
Nautical Twilight 5:59 AM MDT 8:11 PM MDT
Astronomical Twilight 5:27 AM MDT 8:42 PM MDT
Moon 7:14 PM MDT (9/19) 7:09 AM MDT (9/19)
Length of Visible Light 13h 09m
Length of Day
12h 16m
Full, 100% of the Moon is Illuminated
Sep 19
Full
Sep 26
Last Quarter
Oct 4
New
Oct 11
First Quarter
Oct 18
Full

Hourly Weather History & Observations

Time (MDT) Temp. Dew Point Humidity Pressure Visibility Wind Dir Wind Speed Gust Speed Precip Events Conditions
12:15 AM 56.3 °F 49.6 °F 78% 29.99 in 7.0 mi ESE 3.5 mph - N/A   Clear
12:35 AM 55.2 °F 49.5 °F 81% 30.00 in 7.0 mi East 3.5 mph - N/A   Clear
12:55 AM 56.3 °F 48.9 °F 76% 30.00 in 5.0 mi NE 4.6 mph - N/A   Clear
1:15 AM 55.4 °F 50.0 °F 82% 30.01 in 7.0 mi Calm Calm - N/A   Clear
1:35 AM 56.3 °F 50.2 °F 80% 30.02 in 7.0 mi WNW 3.5 mph - N/A   Clear
1:55 AM 56.1 °F 50.2 °F 80% 30.03 in 7.0 mi WNW 4.6 mph - N/A   Clear
2:15 AM 56.3 °F 50.0 °F 79% 30.03 in 7.0 mi Calm Calm - N/A   Clear
2:35 AM 56.3 °F 49.6 °F 78% 30.03 in 5.0 mi Calm Calm - N/A   Clear
2:55 AM 54.5 °F 49.5 °F 83% 30.03 in 7.0 mi Calm Calm - N/A   Clear
3:15 AM 54.7 °F 49.1 °F 81% 30.04 in 7.0 mi East 8.1 mph - N/A   Clear
3:35 AM 52.7 °F 48.7 °F 86% 30.04 in 7.0 mi NE 3.5 mph - N/A   Clear
3:55 AM 52.2 °F 48.4 °F 87% 30.04 in 10.0 mi ENE 5.8 mph - N/A   Clear
4:15 AM 52.2 °F 48.2 °F 86% 30.04 in 7.0 mi ENE 5.8 mph - N/A   Clear
4:35 AM 52.9 °F 48.2 °F 84% 30.05 in 5.0 mi ENE 4.6 mph - N/A   Clear
4:55 AM 51.1 °F 47.5 °F 87% 30.06 in 7.0 mi Calm Calm - N/A   Clear
5:15 AM 49.6 °F 46.4 °F 89% 30.06 in 7.0 mi ENE 3.5 mph - N/A   Clear
5:35 AM 49.6 °F 46.8 °F 90% 30.07 in 7.0 mi NNE 4.6 mph - N/A   Clear
5:55 AM 50.9 °F 47.5 °F 88% 30.07 in 10.0 mi NNE 4.6 mph - N/A   Clear
6:15 AM 50.9 °F 47.7 °F 89% 30.08 in 10.0 mi NNE 4.6 mph - N/A   Clear
6:35 AM 51.8 °F 47.5 °F 85% 30.08 in 10.0 mi NNE 4.6 mph - N/A   Clear
6:55 AM 52.0 °F 47.5 °F 85% 30.08 in 10.0 mi North 4.6 mph - N/A   Clear
7:15 AM 52.5 °F 47.3 °F 82% 30.09 in 10.0 mi NNE 3.5 mph - N/A   Clear
7:35 AM 49.6 °F 47.3 °F 92% 30.10 in 10.0 mi Calm Calm - N/A   Clear
7:55 AM 51.1 °F 48.4 °F 90% 30.11 in 10.0 mi Calm Calm - N/A   Clear
8:15 AM 52.7 °F 49.1 °F 88% 30.12 in 10.0 mi Calm Calm - N/A   Clear
8:35 AM 55.0 °F 49.3 °F 81% 30.12 in 7.0 mi Calm Calm - N/A   Clear
8:55 AM 57.9 °F 49.6 °F 74% 30.13 in 10.0 mi SSE 3.5 mph - N/A   Clear
9:15 AM 59.0 °F 48.9 °F 69% 30.13 in 10.0 mi Calm Calm - N/A   Clear
9:35 AM 60.1 °F 49.5 °F 68% 30.13 in 10.0 mi Calm Calm - N/A   Clear
9:55 AM 62.1 °F 50.0 °F 65% 30.13 in 10.0 mi Calm Calm - N/A   Clear
10:15 AM 63.0 °F 50.0 °F 63% 30.14 in 10.0 mi Calm Calm - N/A   Clear
10:35 AM 63.7 °F 49.8 °F 61% 30.14 in 7.0 mi Calm Calm - N/A   Clear
10:55 AM 64.9 °F 50.0 °F 58% 30.15 in 7.0 mi South 3.5 mph - N/A   Clear
11:15 AM 65.5 °F 48.7 °F 55% 30.14 in 10.0 mi South 3.5 mph - N/A   Clear
11:35 AM 67.1 °F 48.9 °F 52% 30.13 in 10.0 mi Calm Calm - N/A   Clear
11:55 AM 68.4 °F 46.8 °F 46% 30.13 in 10.0 mi Calm Calm - N/A   Clear
12:15 PM 70.0 °F 47.3 °F 44% 30.13 in 7.0 mi WSW 3.5 mph - N/A   Clear
12:35 PM 70.5 °F 45.0 °F 40% 30.12 in 7.0 mi Calm Calm - N/A   Clear
12:55 PM 72.5 °F 46.6 °F 40% 30.12 in 7.0 mi SE 4.6 mph - N/A   Clear
1:15 PM 74.1 °F 44.1 °F 34% 30.11 in 7.0 mi SSE 6.9 mph - N/A   Clear
1:35 PM 74.3 °F 43.0 °F 33% 30.10 in 7.0 mi SE 3.5 mph - N/A   Clear
1:55 PM 75.7 °F 39.9 °F 28% 30.09 in 7.0 mi SE 9.2 mph - N/A   Clear
2:15 PM 78.1 °F 28.2 °F 16% 30.08 in 7.0 mi SSE 8.1 mph - N/A   Clear
2:35 PM 78.8 °F 31.6 °F 18% 30.08 in 7.0 mi Calm Calm - N/A   Clear
2:55 PM 79.2 °F 29.5 °F 16% 30.08 in 7.0 mi West 10.4 mph 19.6 mph N/A   Clear
3:15 PM 80.6 °F 27.5 °F 14% 30.08 in 10.0 mi West 10.4 mph - N/A   Clear
3:35 PM 80.6 °F 26.4 °F 14% 30.07 in 7.0 mi West 13.8 mph - N/A   Clear
3:55 PM 80.6 °F 24.3 °F 13% 30.07 in 7.0 mi WNW 10.4 mph - N/A   Clear
4:15 PM 81.0 °F 25.3 °F 13% 30.06 in 10.0 mi West 12.7 mph 18.4 mph N/A   Clear
4:35 PM 80.1 °F 22.5 °F 12% 30.06 in 10.0 mi West 11.5 mph 16.1 mph N/A   Clear
4:55 PM 80.2 °F 23.0 °F 12% 30.06 in 7.0 mi West 10.4 mph - N/A   Clear
5:15 PM 79.9 °F 24.3 °F 13% 30.06 in 7.0 mi WNW 9.2 mph - N/A   Clear
5:35 PM 79.7 °F 23.7 °F 13% 30.06 in 7.0 mi West 9.2 mph - N/A   Clear
5:55 PM 78.8 °F 20.7 °F 11% 30.07 in 7.0 mi West 9.2 mph - N/A   Clear
6:15 PM 78.3 °F 21.6 °F 12% 30.06 in 7.0 mi West 10.4 mph - N/A   Clear
6:35 PM 77.0 °F 20.1 °F 12% 30.06 in 7.0 mi West 9.2 mph - N/A   Clear
6:55 PM 75.6 °F 20.3 °F 13% 30.07 in 7.0 mi West 6.9 mph - N/A   Clear
7:15 PM 73.6 °F 20.8 °F 14% 30.07 in 7.0 mi WNW 5.8 mph - N/A   Clear
7:35 PM 72.1 °F 18.0 °F 13% 30.08 in 10.0 mi WNW 5.8 mph - N/A   Clear
7:55 PM 70.0 °F 19.0 °F 14% 30.08 in 7.0 mi West 3.5 mph - N/A   Clear
8:15 PM 67.3 °F 18.9 °F 16% 30.09 in 7.0 mi West 5.8 mph - N/A   Clear
8:35 PM 63.9 °F 23.0 °F 21% 30.10 in 7.0 mi Calm Calm - N/A   Clear
8:55 PM 61.7 °F 24.6 °F 24% 30.11 in 10.0 mi ESE 4.6 mph - N/A   Clear
9:15 PM 59.4 °F 27.0 °F 29% 30.12 in 10.0 mi ESE 4.6 mph - N/A   Clear
9:35 PM 57.6 °F 27.7 °F 32% 30.12 in 10.0 mi NNE 6.9 mph - N/A   Clear
9:55 PM 58.5 °F 25.9 °F 29% 30.13 in 10.0 mi East 4.6 mph - N/A   Clear
10:15 PM 59.2 °F 24.8 °F 27% 30.13 in 10.0 mi NE 9.2 mph - N/A   Clear
10:35 PM 57.0 °F 27.1 °F 32% 30.14 in 10.0 mi NNE 8.1 mph - N/A   Clear
10:55 PM 55.0 °F 26.8 °F 34% 30.14 in 10.0 mi NE 6.9 mph - N/A   Clear
11:15 PM 55.8 °F 27.5 °F 34% 30.15 in 10.0 mi ENE 6.9 mph - N/A   Clear
11:35 PM 55.8 °F 27.0 °F 33% 30.15 in 10.0 mi ENE 8.1 mph - N/A   Clear
11:55 PM 55.2 °F 27.9 °F 35% 30.15 in 10.0 mi ENE 6.9 mph - N/A   Clear